EW2270 Weather Reports


Display with metric or nautical units.
time (UTC)temp
F
wind
direction
speed
MPH
gust
MPH
rain 1hr
in
rain 24hr
in
rain mn
in
humidity
%
barometer
mb
20260902170031 66 30 3.0 6.0 0.00 0.00 0.00 49 1007.3
20260902164530 66 248 5.0 7.0 0.00 0.00 0.00 49 1007.3
20260902163028 65 222 2.0 6.0 0.00 0.00 0.00 51 1007.4
20260902161526 65 302 1.0 7.0 0.00 0.00 0.00 51 1007.4
20260902160024 65 229 3.0 6.0 0.00 0.00 0.00 51 1007.5
20260902154526 64 269 6.0 10.0 0.00 0.00 0.00 52 1007.8
20260902153023 63 210 3.0 7.0 0.00 0.00 0.00 54 1008.0
20260902151518 60 156 1.0 2.0 0.00 0.00 0.00 62 1008.2
20260902150018 56 157 0.0 0.0 0.00 0.00 0.00 66 1008.3
20260902144520 55 157 0.0 2.0 0.00 0.00 0.00 67 1008.5
20260902143017 54 186 4.0 6.0 0.00 0.00 0.00 69 1008.5
20260902141516 55 148 2.0 4.0 0.00 0.00 0.00 68 1008.4
20260902140013 54 141 2.0 3.0 0.00 0.00 0.00 68 1008.5
20260902134513 55 193 0.0 4.0 0.00 0.00 0.00 68 1008.5
20260902133012 56 186 2.0 3.0 0.00 0.00 0.00 66 1008.5
20260902131511 56 169 3.0 5.0 0.00 0.00 0.00 67 1008.5
20260902130010 55 165 3.0 4.0 0.00 0.00 0.00 69 1008.2
20260902124509 55 233 1.0 3.0 0.00 0.00 0.00 68 1008.2
20260902123009 55 238 1.0 5.0 0.00 0.00 0.00 68 1008.2
20260902121506 55 203 4.0 6.0 0.00 0.00 0.00 69 1008.1
20260902120007 56 140 2.0 3.0 0.00 0.00 0.00 67 1007.7
20260902114501 57 158 0.0 2.0 0.00 0.00 0.00 66 1007.6
20260902113004 58 158 0.0 3.0 0.00 0.00 0.00 65 1007.7
20260902111606 58 158 1.0 3.0 0.00 0.00 0.00 66 1008.1
20260902110059 58 158 0.0 2.0 0.00 0.00 0.00 66 1008.4
20260902104558 59 153 2.0 5.0 0.00 0.00 0.00 66 1008.7
20260902103056 58 159 4.0 7.0 0.00 0.00 0.00 66 1008.5
20260902101555 57 146 3.0 5.0 0.00 0.00 0.00 67 1008.2
20260902100104 56 149 5.0 6.0 0.00 0.00 0.00 67 1008.1
20260902094551 57 153 1.0 4.0 0.00 0.00 0.00 66 1007.9
20260902093048 58 127 2.0 6.0 0.00 0.00 0.00 64 1008.0
20260902091550 60 176 0.0 6.0 0.00 0.00 0.00 62 1008.0
20260902090043 61 210 2.0 9.0 0.00 0.00 0.00 61 1008.3
20260902084539 61 236 4.0 8.0 0.00 0.00 0.00 60 1008.4
20260902083038 62 207 3.0 12.0 0.00 0.00 0.00 59 1007.9
20260902081538 62 203 7.0 13.0 0.00 0.00 0.00 59 1008.4
20260902080035 62 199 4.0 12.0 0.00 0.00 0.00 58 1008.3
20260902074538 62 202 6.0 11.0 0.00 0.00 0.00 57 1008.4
20260902073032 62 233 7.0 16.0 0.00 0.00 0.00 57 1008.0
20260902071526 63 203 7.0 16.0 0.00 0.00 0.00 56 1008.1
20260902070023 63 221 8.0 15.0 0.00 0.00 0.00 55 1007.9
20260902064522 63 221 5.0 12.0 0.00 0.00 0.00 55 1007.7
20260902063033 64 195 7.0 15.0 0.00 0.00 0.00 54 1007.4
20260902061523 64 203 5.0 16.0 0.00 0.00 0.00 53 1007.4
20260902060018 63 200 5.0 8.0 0.00 0.00 0.00 53 1007.4
20260902054524 64 207 2.0 10.0 0.00 0.00 0.00 50 1007.4
20260902053016 66 232 9.0 17.0 0.00 0.00 0.00 48 1007.1
20260902051515 66 229 7.0 14.0 0.00 0.00 0.00 48 1007.1
20260902050043 67 210 9.0 17.0 0.00 0.00 0.00 45 1006.9
20260902044513 68 221 6.0 14.0 0.00 0.00 0.00 44 1006.7
20260902043027 68 219 5.0 18.0 0.00 0.00 0.00 43 1006.5
20260902041513 68 200 7.0 11.0 0.00 0.00 0.00 42 1006.2
20260902040012 67 156 3.0 5.0 0.00 0.00 0.00 42 1005.8
20260902034511 68 147 3.0 6.0 0.00 0.00 0.00 42 1005.4
20260902033010 69 142 3.0 7.0 0.00 0.00 0.00 40 1005.2
20260902031509 70 247 3.0 8.0 0.00 0.00 0.00 40 1004.7
20260902030009 71 255 5.0 8.0 0.00 0.00 0.00 38 1004.5
20260902024508 72 243 6.0 9.0 0.00 0.00 0.00 36 1004.2
20260902023008 74 272 6.0 11.0 0.00 0.00 0.00 34 1004.0
20260902021507 75 270 5.0 10.0 0.00 0.00 0.00 35 1003.8
20260902020007 76 280 5.0 8.0 0.00 0.00 0.00 34 1003.8
20260902014506 77 296 2.0 3.0 0.00 0.00 0.00 34 1003.8
20260902013005 78 314 2.0 4.0 0.00 0.00 0.00 34 1003.6
20260902011504 78 320 1.0 5.0 0.00 0.00 0.00 34 1003.6
20260902010006 79 315 2.0 5.0 0.00 0.00 0.00 34 1003.6
20260902004503 79 291 3.0 6.0 0.00 0.00 0.00 33 1003.6
20260902003004 79 326 3.0 8.0 0.00 0.00 0.00 33 1003.4
20260902001501 80 288 4.0 7.0 0.00 0.00 0.00 32 1003.5
20260902000104 80 293 3.0 8.0 0.00 0.00 0.00 32 1003.5
20260901234600 80 299 2.0 7.0 0.00 0.00 0.00 32 1003.5
20260901233059 80 307 1.0 8.0 0.00 0.00 0.00 32 1003.5
20260901231557 80 333 6.0 10.0 0.00 0.00 0.00 33 1003.6
20260901230104 80 345 2.0 10.0 0.00 0.00 0.00 32 1003.8
20260901224554 80 288 4.0 12.0 0.00 0.00 0.00 33 1003.8
20260901223103 79 343 3.0 13.0 0.00 0.00 0.00 33 1004.0
20260901221547 78 255 4.0 9.0 0.00 0.00 0.00 35 1004.2
20260901220105 78 333 4.0 7.0 0.00 0.00 0.00 36 1004.3
20260901214543 77 307 5.0 9.0 0.00 0.00 0.00 37 1004.4
20260901213046 77 39 0.0 5.0 0.00 0.00 0.00 38 1004.6
20260901211539 77 244 0.0 4.0 0.00 0.00 0.00 38 1004.7
20260901210038 76 301 2.0 6.0 0.00 0.00 0.00 39 1004.7
20260901204539 76 250 3.0 6.0 0.00 0.00 0.00 39 1005.2
20260901203037 75 207 5.0 8.0 0.00 0.00 0.00 37 1005.4
20260901201530 74 242 3.0 10.0 0.00 0.00 0.00 38 1005.5
20260901200029 74 292 4.0 7.0 0.00 0.00 0.00 38 1005.6
20260901194525 72 312 0.0 9.0 0.00 0.00 0.00 44 1005.9
20260901193030 71 262 9.0 15.0 0.00 0.00 0.00 45 1006.0
20260901191522 71 294 8.0 10.0 0.00 0.00 0.00 40 1005.7
20260901190019 70 293 5.0 16.0 0.00 0.00 0.00 40 1005.5
20260901184532 70 6 2.0 7.0 0.00 0.00 0.00 41 1006.3
20260901183018 70 319 5.0 8.0 0.00 0.00 0.00 39 1006.1
20260901181521 70 322 3.0 5.0 0.00 0.00 0.00 39 1006.5
20260901180015 69 1 2.0 5.0 0.00 0.00 0.00 38 1006.6
20260901174534 69 46 4.0 8.0 0.00 0.00 0.00 39 1006.0
20260901173008 67 79 3.0 5.0 0.00 0.00 0.00 40 1006.2
20260901171505 67 41 0.0 5.0 0.00 0.00 0.00 42 1006.6